Air Force Academy, CO

4:54 AM MST on November 13, 2019 (GMT -0700)
Usaf Academy

Weather History for KAFF - May, 2019

Change the Weather History Date:

Friday, May 31, 2019

  Actual Average Record
Temperature  
Mean Temperature 54 °F -  
Max Temperature 72 °F 69 °F 89 °F (2002)
Min Temperature 36 °F 43 °F 33 °F (2004)
Degree Days  
Heating Degree Days 12    
Growing Degree Days 4 (Base 50)    
Moisture  
Dew Point 37 °F    
Average Humidity 50    
Maximum Humidity 92    
Minimum Humidity 22    
Precipitation  
Precipitation 0.01 in - - ()
Sea Level Pressure  
Sea Level Pressure 29.99 in    
Wind  
Wind Speed 9 mph (North)    
Max Wind Speed 21 mph    
Max Gust Speed 32 mph    
Visibility 10 miles    
Events Rain , Thunderstorm    
Averages and records for this station are not official NWS values.
T = Trace of Precipitation, MM = Missing Value Source: NWS Daily Summary

Daily Weather History Graph

Daily Weather History Graph

Search for Another Location

Airport or City:

Astronomy

May. 31, 2019 Rise Set
Actual Time 5:36 AM MDT 8:18 PM MDT
Civil Twilight 5:04 AM MDT 8:49 PM MDT
Nautical Twilight 4:25 AM MDT 9:28 PM MDT
Astronomical Twilight 3:41 AM MDT 10:13 PM MDT
Moon 4:08 AM MDT (5/31) 5:32 PM MDT (5/31)
Length of Visible Light 15h 44m
Length of Day
14h 42m
Waning Crescent, 8% of the Moon is Illuminated
May 31
Waning Crescent
Jun 3
New
Jun 10
First Quarter
Jun 17
Full
Jun 25
Last Quarter

Hourly Weather History & Observations

Time (MDT) Temp. Windchill Dew Point Humidity Pressure Visibility Wind Dir Wind Speed Gust Speed Precip Events Conditions
12:58 AM 42.8 °F 37.5 °F 38.3 °F 84% 30.05 in 10.0 mi North 9.2 mph - N/A   Mostly Cloudy
1:58 AM 39.9 °F 33.4 °F 37.2 °F 90% 30.06 in 10.0 mi NNE 10.4 mph - N/A   Clear
2:58 AM 37.9 °F 31.5 °F 35.8 °F 92% 30.06 in 10.0 mi North 9.2 mph - N/A   Clear
3:58 AM 39.2 °F 35.0 °F 34.7 °F 84% 30.05 in 10.0 mi North 5.8 mph - N/A   Clear
4:58 AM 38.5 °F 36.1 °F 33.4 °F 82% 30.05 in 10.0 mi NNE 3.5 mph - N/A   Clear
5:58 AM 36.9 °F 32.2 °F 34.0 °F 89% 30.06 in 10.0 mi NNE 5.8 mph - N/A   Clear
6:58 AM 44.1 °F 40.8 °F 37.0 °F 76% 30.05 in 10.0 mi NNW 5.8 mph - N/A   Clear
7:58 AM 53.6 °F - 39.6 °F 59% 30.04 in 10.0 mi Calm Calm - N/A   Clear
8:58 AM 60.3 °F - 37.0 °F 42% 30.03 in 10.0 mi SSE 5.8 mph - N/A   Clear
9:58 AM 63.9 °F - 35.6 °F 35% 29.99 in 10.0 mi SE 5.8 mph - N/A   Clear
10:58 AM 67.1 °F - 35.4 °F 31% 29.98 in 10.0 mi SSW 8.1 mph - N/A   Clear
12:58 PM 70.0 °F - 33.4 °F 26% 29.98 in 10.0 mi South 8.1 mph - N/A   Scattered Clouds
1:50 PM 71.6 °F - 30.2 °F 22% 29.97 in 10.0 mi South 17.3 mph - N/A   Scattered Clouds
1:58 PM 69.4 °F - 30.0 °F 23% 29.97 in 10.0 mi SSE 9.2 mph 20.7 mph N/A   Scattered Clouds
2:12 PM 71.6 °F - 32.0 °F 23% 29.94 in 10.0 mi SSE 13.8 mph 21.9 mph N/A   Partly Cloudy
2:23 PM 71.6 °F - 32.0 °F 23% 29.94 in 10.0 mi South 16.1 mph - N/A   Clear
2:58 PM 71.1 °F - 30.2 °F 22% 29.94 in 10.0 mi South 8.1 mph - N/A   Mostly Cloudy
3:58 PM 68.5 °F - 32.4 °F 26% 29.95 in 10.0 mi North 5.8 mph - N/A   Overcast
4:58 PM 70.5 °F - 34.9 °F 27% 29.94 in 10.0 mi NE 10.4 mph - N/A   Mostly Cloudy
5:31 PM 68.0 °F - 33.8 °F 28% 29.96 in 10.0 mi NNE 6.9 mph - N/A Thunderstorm Overcast
5:38 PM 68.0 °F - 35.6 °F 30% 29.99 in 10.0 mi SSE 20.7 mph 32.2 mph N/A Thunderstorm Overcast
5:41 PM 68.0 °F - 35.6 °F 30% 29.99 in 10.0 mi SSE 17.3 mph 25.3 mph N/A Rain , Thunderstorm Light Rain
5:43 PM 66.2 °F - 35.6 °F 32% 29.98 in 10.0 mi SSW 12.7 mph 25.3 mph N/A Rain , Thunderstorm Light Rain
5:44 PM 66.2 °F - 35.6 °F 32% 29.98 in 10.0 mi ENE 6.9 mph 25.3 mph N/A Rain , Thunderstorm Light Rain
5:53 PM 64.4 °F - 37.4 °F 37% 29.99 in 10.0 mi Variable 5.8 mph 25.3 mph N/A Rain Light Rain
5:54 PM 64.4 °F - 37.4 °F 37% 29.99 in 10.0 mi Calm Calm - N/A   Mostly Cloudy
5:58 PM 64.8 °F - 36.5 °F 35% 29.99 in 10.0 mi NNE 4.6 mph - 0.00 in   Mostly Cloudy
6:58 PM 62.2 °F - 36.3 °F 38% 29.98 in 10.0 mi NNE 9.2 mph - 0.00 in   Mostly Cloudy
7:06 PM 62.6 °F - 37.4 °F 39% 29.98 in 10.0 mi North 12.7 mph - N/A Rain Light Rain
7:16 PM 62.6 °F - 39.2 °F 42% 29.97 in 10.0 mi North 11.5 mph - N/A   Mostly Cloudy
7:58 PM 59.2 °F - 38.5 °F 46% 29.96 in 10.0 mi NNW 9.2 mph - 0.00 in   Partly Cloudy
8:08 PM 59.0 °F - 39.2 °F 48% 29.96 in 10.0 mi NNW 11.5 mph - N/A Rain Light Rain
8:22 PM 59.0 °F - 39.2 °F 48% 29.97 in 10.0 mi NNW 16.1 mph - N/A   Mostly Cloudy
8:29 PM 59.0 °F - 41.0 °F 51% 29.97 in 10.0 mi NNW 18.4 mph - N/A Rain Light Rain
8:53 PM 53.6 °F - 42.8 °F 67% 29.99 in 10.0 mi NW 10.4 mph - N/A   Mostly Cloudy
8:58 PM 53.6 °F - 43.7 °F 69% 30.01 in 10.0 mi NW 12.7 mph - 0.01 in   Mostly Cloudy
9:17 PM 53.6 °F - 42.8 °F 67% 30.01 in 10.0 mi North 9.2 mph - N/A   Light Drizzle
9:22 PM 53.6 °F - 42.8 °F 67% 30.01 in 10.0 mi NNE 6.9 mph - N/A Rain Light Rain
9:39 PM 53.6 °F - 42.8 °F 67% 30.01 in 10.0 mi NW 5.8 mph - N/A   Mostly Cloudy
9:58 PM 51.3 °F - 43.9 °F 76% 30.03 in 10.0 mi North 6.9 mph - 0.00 in   Scattered Clouds
10:58 PM 48.0 °F - 42.4 °F 81% 30.01 in 10.0 mi NNW 6.9 mph - N/A   Clear
11:58 PM 45.3 °F 41.1 °F 41.4 °F 86% 30.01 in 10.0 mi North 8.1 mph - N/A   Clear